Flag for U.S.A. Weather past 2 weeks in Kalamazoo, Michigan, U.S.A.

Now
81 °F

Overcast.


Feels Like: 84 °F
Forecast: 62 / 75 °F
Wind: 8 mph from Southwest

Location: Kalamazoo / Battle Creek International Airport

Current Time: Jul 22, 2014 at 10:18:33 PM

Latest Report: Jul 22, 2014 at 9:53 PM


Visibility: 10 mi

Pressure: 29.94 "Hg

Humidity: 67%

Dew point: 69 °F

Location of KalamazooLocation

Historic Weather in Kalamazoo — Graph

°F

Kalamazoo temperature yesterday

Maximum temperature yesterday: 84 °F (at 3:53 PM)
Minimum temperature yesterday: 64 °F (at 2:53 AM)
Average temperature yesterday: 74 °F

Past Weeks' High & Low Weather Summary

 TemperatureHumidityPressure
High85 °F (Jul 22, 12:53 PM)96% (Jul 11, 6:53 AM)30.24 "Hg (Jul 11, 6:53 AM)
Low48 °F (Jul 17, 5:53 AM)38% (Jul 17, 12:53 PM)29.58 "Hg (Jul 8, 8:53 AM)
Average69 °F70%30.00 "Hg
* Reported Jul 7 8:53 PM — Jul 22 8:53 PM, Kalamazoo, Weather by CustomWeather, © 2014

Note: Actual official high and low records may vary slightly from our data, if they occured in-between our weather recording intervals... More about our weather records

Advertising

Kalamazoo weather history for previous 24 hours

 ConditionsComfort  
Time TempWeatherWind HumidityBarometerVisibility
8:53 PM
Jul 22
82 °FPartly sunny.9 mph65%29.94 "Hg10 mi
7:53 PM84 °FScattered clouds.8 mph61%29.95 "Hg10 mi
12:53 PM85 °FSunny.13 mph55%30.03 "Hg10 mi
11:53 AM82 °FSunny.13 mph58%30.02 "Hg10 mi
10:53 AM81 °FSunny.14 mph62%30.03 "Hg10 mi
9:53 AM77 °FSunny.9 mph66%30.06 "Hg10 mi
8:53 AM73 °FSunny.7 mph76%30.09 "Hg10 mi
7:53 AM69 °FSunny.3 mph84%30.09 "Hg10 mi
6:53 AM67 °FClear.3 mph87%30.08 "Hg9 mi
5:53 AM67 °FClear.5 mph90%30.08 "Hg10 mi
4:53 AM64 °FClear.5 mph94%30.08 "Hg9 mi
3:53 AM66 °FClear.No wind90%30.08 "Hg10 mi
2:53 AM66 °FClear.3 mph90%30.07 "Hg10 mi
1:53 AM68 °FClear.No wind84%30.08 "Hg10 mi
12:53 AM70 °FClear.No wind81%30.08 "Hg10 mi
11:53 PM
Jul 21
69 °FClear.No wind87%30.08 "Hg10 mi
10:53 PM73 °FClear.3 mph76%30.09 "Hg10 mi
Weather by CustomWeather, © 2014

See weather overviewHow to use our weather pages